Home   Weather   Haywards Heath   Past weeks

Flag for United Kingdom Past Weather in Haywards Heath, England, United Kingdom — Yesterday and Last 2 Weeks

Now
46 °F

Clear.


Feels Like: 43 °F
Forecast: N/A
Wind: 7 mph from East

Location: London / Gatwick Airport

Current Time: Dec 5, 2016 at 2:46:27 pm

Latest Report: Dec 5, 2016 at 1:50 pm


Visibility: 6 mi

Pressure: 30.21 "Hg

Humidity: 76%

Dew Point: 39 °F

Location of Haywards HeathLocation

Past Weather in Haywards Heath — Graph

°F

Haywards Heath Temperature Yesterday

Maximum temperature yesterday: 43 °F (at 11:50 am)
Minimum temperature yesterday: 28 °F (at 4:50 am)
Average temperature yesterday: 35 °F

High & Low Weather Summary for the Past Weeks

 TemperatureHumidityPressure
High55 °F (Nov 21, 11:20 am)100% (Nov 21, 12:50 am)30.57 "Hg (Nov 21, 12:50 am)
Low18 °F (Nov 30, 7:50 am)40% (Nov 30, 1:50 pm)29.09 "Hg (Nov 21, 12:50 pm)
Average41 °F83%30.12 "Hg
* Reported Nov 20 1:20 pm — Dec 5 1:50 pm, Haywards Heath, Weather by CustomWeather, © 2016

Note: Actual official high and low records may vary slightly from our data, if they occured in-between our weather recording intervals... More about our weather records

Advertising

Haywards Heath Weather History for the Previous 24 Hours

Scroll right to see more
 ConditionsComfort  
Time TempWeatherWind HumidityBarometerVisibility
1:50 pm
Mon, Dec 5
46 °FClear.7 mph76%30.21 "Hg6 mi
1:20 pm46 °FClear.6 mph76%30.21 "Hg6 mi
12:50 pm45 °FClear.6 mph81%30.21 "Hg5 mi
12:20 pm43 °FClear.7 mph81%30.21 "Hg5 mi
11:50 am43 °FClear.6 mph81%30.21 "Hg6 mi
11:20 am41 °FClear.5 mph81%30.24 "Hg5 mi
10:50 am39 °FClear.5 mph87%30.24 "Hg4 mi
10:20 am37 °FClear.6 mph87%30.24 "Hg6 mi
9:50 am36 °FClear.5 mph93%30.24 "Hg6 mi
9:20 am34 °FClear.3 mph93%30.24 "Hg5 mi
8:50 am32 °FClear.3 mph93%30.24 "Hg5 mi
8:20 am30 °FClear.3 mph93%30.24 "Hg4 mi
7:50 am28 °FClear.3 mph100%30.21 "Hg4 mi
7:20 am28 °FClear.3 mph93%30.21 "Hg5 mi
6:50 am27 °FClear.3 mph100%30.21 "Hg5 mi
6:20 am27 °FClear.5 mph93%30.21 "Hg4 mi
5:50 am27 °FClear.3 mph93%30.21 "Hg4 mi
5:20 am27 °FClear.No wind93%30.21 "Hg4 mi
4:50 am27 °FClear.2 mph100%30.21 "Hg4 mi
4:20 am28 °FClear.No wind93%30.21 "Hg5 mi
3:50 am27 °FClear.2 mph100%30.21 "Hg5 mi
3:20 am28 °FClear.2 mph93%30.21 "Hg5 mi
2:50 am28 °FClear.2 mph93%30.21 "Hg5 mi
2:20 am28 °FClear.3 mph93%30.21 "Hg5 mi
1:50 am28 °FClear.3 mph93%30.21 "Hg5 mi
1:20 am28 °FClear.3 mph93%30.21 "Hg5 mi
12:50 am28 °FClear.2 mph93%30.21 "Hg6 mi
12:20 am28 °FClear.3 mph93%30.21 "Hg6 mi
11:50 pm
Sun, Dec 4
28 °FClear.6 mph93%30.21 "Hg10 mi
11:20 pm30 °FClear.3 mph86%30.21 "Hg10 mi
10:50 pm28 °FClear.5 mph93%30.21 "Hg10 mi
10:20 pm30 °FClear.2 mph86%30.21 "Hg10 mi
9:50 pm32 °FClear.3 mph87%30.21 "Hg10 mi
9:20 pm30 °FPassing clouds.6 mph86%30.21 "HgN/A
8:50 pm32 °FClear.3 mph80%30.21 "Hg10 mi
8:20 pm34 °FClear.5 mph81%30.21 "Hg10 mi
7:50 pm32 °FClear.3 mph87%30.21 "Hg10 mi
7:20 pm32 °FClear.2 mph80%30.21 "Hg10 mi
6:50 pm34 °FClear.6 mph75%30.21 "Hg10 mi
6:20 pm34 °FClear.7 mph75%30.18 "Hg10 mi
5:50 pm36 °FClear.8 mph70%30.18 "Hg10 mi
5:20 pm37 °FClear.8 mph60%30.18 "Hg10 mi
4:50 pm37 °FClear.8 mph60%30.18 "Hg10 mi
4:20 pm37 °FClear.8 mph65%30.18 "Hg10 mi
3:50 pm39 °FSunny.9 mph61%30.18 "Hg10 mi
3:20 pm41 °FSunny.9 mph61%30.18 "Hg10 mi
2:50 pm43 °FSunny.12 mph53%30.18 "Hg10 mi
2:20 pm43 °FSunny.10 mph53%30.18 "Hg10 mi
Weather by CustomWeather, © 2016

See weather overviewHow to use our weather pages